This is the latest recevied weather packets stored in our database for station/object NK0Z-13. If no packets are shown the sender has not sent any weather packets the latest 10 day(s).
| Time | Temp. | Humidity | Pressure | Rain* | Wind** | Luminosity | Snow |
|---|---|---|---|---|---|---|---|
| 1777876988 | 19.44° C | 45% | 1007.7 hPa | 0 mm | - | 0 W/m² | - |
| 1777876383 | 19.44° C | 45% | 1008.2 hPa | 0 mm | - | 0 W/m² | - |
| 1777875781 | 19.44° C | 45% | 1008.1 hPa | 0 mm | - | 0 W/m² | - |
| 1777875180 | 19.44° C | 44% | 1008.2 hPa | 0 mm | - | 0 W/m² | - |
| 1777874578 | 19.44° C | 44% | 1008.4 hPa | 0 mm | - | 0 W/m² | - |
| 1777873974 | 18.89° C | 44% | 1008.2 hPa | 0 mm | - | 0 W/m² | - |
| 1777873368 | 17.78° C | 46% | 1008.4 hPa | 0 mm | - | 0 W/m² | - |
| 1777872766 | 17.78° C | 47% | 1008.3 hPa | 0 mm | - | 0 W/m² | - |
| 1777872163 | 17.22° C | 47% | 1008.5 hPa | 0 mm | - | 0 W/m² | - |
| 1777871561 | 17.78° C | 46% | 1008.5 hPa | 0 mm | - | 0 W/m² | - |
| 1777870961 | 17.78° C | 46% | 1008.5 hPa | 0 mm | - | 0 W/m² | - |
| 1777870358 | 17.78° C | 46% | 1008.8 hPa | 0 mm | - | 0 W/m² | - |
| 1777869754 | 18.33° C | 44% | 1008.6 hPa | 0 mm | - | 0 W/m² | - |
| 1777869153 | 18.89° C | 42% | 1008.8 hPa | 0 mm | - | 0 W/m² | - |
| 1777868553 | 19.44° C | 41% | 1009 hPa | 0 mm | - | 0 W/m² | - |
| 1777867951 | 20° C | 40% | 1009 hPa | 0 mm | - | 0 W/m² | - |
| 1777867352 | 20° C | 40% | 1008.8 hPa | 0 mm | - | 0 W/m² | - |
| 1777866751 | 19.44° C | 41% | 1008.9 hPa | 0 mm | - | 0 W/m² | - |
| 1777866145 | 18.89° C | 42% | 1008.8 hPa | 0 mm | - | 0 W/m² | - |
| 1777865540 | 18.89° C | 42% | 1008.8 hPa | 0 mm | - | 0 W/m² | - |
| 1777864940 | 19.44° C | 41% | 1008.9 hPa | 0 mm | - | 0 W/m² | - |
| 1777864339 | 19.44° C | 41% | 1008.7 hPa | 0 mm | - | 0 W/m² | - |
| 1777863738 | 19.44° C | 40% | 1008.6 hPa | 0 mm | - | 0 W/m² | - |
| 1777863137 | 20° C | 40% | 1008.7 hPa | 0 mm | - | 0 W/m² | - |
| 1777862537 | 20° C | 38% | 1008.7 hPa | 0 mm | - | 0 W/m² | - |
* Rain latest hour (hover to see other rain measurements)
** Current wind speed in m/s (hover to see current wind gust speed)